| time (UTC) | temp F | wind direction | speed knots | gust knots | rain 1hr in | rain 24hr in | rain mn in | humidity % | barometer mb |
| 20260904032420 | 79 | 155 | 2.6 | 6.1 | 0.00 | 0.00 | 0.00 | 82 | 1008.1 |
| 20260904032411 | 79 | 126 | 2.6 | 6.1 | 0.00 | 0.00 | 0.00 | 82 | 1008.1 |
| 20260904031417 | 79 | 161 | 2.6 | 6.1 | 0.00 | 0.00 | 0.00 | 82 | 1008.2 |
| 20260904030917 | 79 | 153 | 1.7 | 6.1 | 0.00 | 0.00 | 0.00 | 81 | 1008.2 |
| 20260904030641 | 79 | 166 | 1.7 | 6.1 | 0.00 | 0.00 | 0.00 | 81 | 1008.2 |
| 20260904030403 | 79 | 127 | 0.9 | 3.5 | 0.00 | 0.00 | 0.00 | 81 | 1008.2 |
| 20260904025643 | 79 | 131 | 1.7 | 3.5 | 0.00 | 0.00 | 0.00 | 80 | 1008.3 |
| 20260904024915 | 79 | 151 | 0.9 | 5.2 | 0.00 | 0.00 | 0.00 | 80 | 1008.3 |
| 20260904024414 | 79 | 69 | 1.7 | 5.2 | 0.00 | 0.00 | 0.00 | 80 | 1008.3 |
| 20260904023914 | 80 | 90 | 1.7 | 6.1 | 0.00 | 0.00 | 0.00 | 79 | 1008.3 |
| 20260904023414 | 80 | 85 | 1.7 | 6.1 | 0.00 | 0.00 | 0.00 | 79 | 1008.3 |
| 20260904022917 | 80 | 126 | 1.7 | 2.6 | 0.00 | 0.00 | 0.00 | 79 | 1008.2 |
| 20260904022412 | 80 | 92 | 1.7 | 4.3 | 0.00 | 0.00 | 0.00 | 78 | 1008.2 |
| 20260904021911 | 80 | 94 | 0.9 | 4.3 | 0.00 | 0.00 | 0.00 | 78 | 1008.3 |
| 20260904021622 | 80 | 145 | 0.9 | 3.5 | 0.00 | 0.00 | 0.00 | 77 | 1008.2 |
| 20260904021128 | 80 | 188 | 0.9 | 3.5 | 0.00 | 0.00 | 0.00 | 77 | 1008.3 |
| 20260904020358 | 80 | 124 | 0.9 | 3.5 | 0.00 | 0.00 | 0.00 | 77 | 1008.2 |
| 20260904015900 | 81 | 133 | 0.9 | 3.5 | 0.00 | 0.00 | 0.00 | 76 | 1008.2 |
| 20260904015359 | 81 | 150 | 0.9 | 3.5 | 0.00 | 0.00 | 0.00 | 76 | 1008.3 |
| 20260904014858 | 81 | 74 | 0.9 | 4.3 | 0.00 | 0.00 | 0.00 | 76 | 1008.3 |
| 20260904014358 | 81 | 74 | 0.9 | 5.2 | 0.00 | 0.00 | 0.00 | 75 | 1008.3 |
| 20260904013858 | 81 | 74 | 0.9 | 5.2 | 0.00 | 0.00 | 0.00 | 75 | 1008.2 |
| 20260904013356 | 81 | 119 | 0.9 | 4.3 | 0.00 | 0.00 | 0.00 | 74 | 1008.0 |
| 20260904013122 | 81 | 164 | 1.7 | 4.3 | 0.00 | 0.00 | 0.00 | 74 | 1007.9 |
| 20260904012354 | 82 | 138 | 1.7 | 4.3 | 0.00 | 0.00 | 0.00 | 74 | 1007.8 |
| 20260904012111 | 82 | 150 | 2.6 | 6.1 | 0.00 | 0.00 | 0.00 | 73 | 1007.8 |
| 20260904011352 | 82 | 154 | 1.7 | 6.1 | 0.00 | 0.00 | 0.00 | 72 | 1007.7 |
| 20260904010852 | 82 | 165 | 1.7 | 6.1 | 0.00 | 0.00 | 0.00 | 72 | 1007.6 |
| 20260904010350 | 82 | 152 | 2.6 | 10.4 | 0.00 | 0.00 | 0.00 | 71 | 1007.7 |
| 20260904005851 | 83 | 159 | 3.5 | 10.4 | 0.00 | 0.00 | 0.00 | 71 | 1007.6 |
| 20260904005351 | 83 | 135 | 2.6 | 6.1 | 0.00 | 0.00 | 0.00 | 71 | 1007.6 |
| 20260904004851 | 83 | 153 | 2.6 | 6.1 | 0.00 | 0.00 | 0.00 | 70 | 1007.6 |
| 20260904004617 | 83 | 161 | 2.6 | 7.0 | 0.00 | 0.00 | 0.00 | 69 | 1007.5 |
| 20260904003852 | 84 | 149 | 2.6 | 7.8 | 0.00 | 0.00 | 0.00 | 69 | 1007.6 |
| 20260904003608 | 84 | 135 | 3.5 | 7.8 | 0.00 | 0.00 | 0.00 | 68 | 1007.6 |
| 20260904002849 | 84 | 142 | 2.6 | 7.0 | 0.00 | 0.00 | 0.00 | 68 | 1007.6 |
| 20260904002611 | 84 | 121 | 2.6 | 7.0 | 0.00 | 0.00 | 0.00 | 67 | 1007.6 |
| 20260904001850 | 85 | 152 | 2.6 | 7.0 | 0.00 | 0.00 | 0.00 | 67 | 1007.7 |
| 20260904001349 | 85 | 144 | 1.7 | 4.3 | 0.00 | 0.00 | 0.00 | 66 | 1007.7 |
| 20260904000846 | 85 | 151 | 1.7 | 8.7 | 0.00 | 0.00 | 0.00 | 66 | 1007.7 |
| 20260904000348 | 85 | 144 | 2.6 | 8.7 | 0.00 | 0.00 | 0.00 | 66 | 1007.7 |
| 20260904000115 | 85 | 150 | 2.6 | 9.6 | 0.00 | 0.00 | 0.00 | 66 | 1007.7 |
| 20260903235346 | 85 | 158 | 2.6 | 9.6 | 0.00 | 0.00 | 0.00 | 65 | 1007.7 |
| 20260903234847 | 86 | 148 | 2.6 | 8.7 | 0.00 | 0.00 | 0.00 | 65 | 1007.7 |
| 20260903234341 | 86 | 115 | 3.5 | 9.6 | 0.00 | 0.00 | 0.00 | 64 | 1007.6 |
| 20260903233836 | 86 | 113 | 3.5 | 9.6 | 0.00 | 0.00 | 0.00 | 64 | 1007.7 |
| 20260903233335 | 86 | 194 | 3.5 | 9.6 | 0.00 | 0.00 | 0.00 | 64 | 1007.5 |
| 20260903233059 | 86 | 174 | 4.3 | 10.4 | 0.00 | 0.00 | 0.00 | 64 | 1007.4 |
| 20260903232335 | 86 | 150 | 3.5 | 10.4 | 0.00 | 0.00 | 0.00 | 63 | 1007.3 |
| 20260903231835 | 86 | 278 | 2.6 | 11.3 | 0.00 | 0.00 | 0.00 | 63 | 1007.3 |
| 20260903231604 | 86 | 214 | 2.6 | 11.3 | 0.00 | 0.00 | 0.00 | 63 | 1007.1 |
| 20260903230836 | 86 | 160 | 3.5 | 7.0 | 0.00 | 0.00 | 0.00 | 63 | 1007.0 |
| 20260903230335 | 86 | 193 | 3.5 | 7.8 | 0.00 | 0.00 | 0.00 | 63 | 1007.1 |
| 20260903225833 | 86 | 134 | 3.5 | 7.8 | 0.00 | 0.00 | 0.00 | 63 | 1006.9 |
| 20260903225551 | 86 | 151 | 3.5 | 13.0 | 0.00 | 0.00 | 0.00 | 63 | 1007.0 |
| 20260903224833 | 86 | 158 | 3.5 | 13.0 | 0.00 | 0.00 | 0.00 | 63 | 1007.0 |
| 20260903224553 | 86 | 135 | 4.3 | 9.6 | 0.00 | 0.00 | 0.00 | 63 | 1007.1 |
| 20260903223835 | 86 | 146 | 3.5 | 9.6 | 0.00 | 0.00 | 0.00 | 63 | 1007.0 |
| 20260903223550 | 86 | 176 | 2.6 | 7.0 | 0.00 | 0.00 | 0.00 | 63 | 1007.1 |
| 20260903223106 | 86 | 149 | 2.6 | 6.1 | 0.00 | 0.00 | 0.00 | 64 | 1007.1 |
| 20260903222333 | 86 | 97 | 3.5 | 11.3 | 0.00 | 0.00 | 0.00 | 63 | 1007.2 |
| 20260903221833 | 86 | 157 | 3.5 | 11.3 | 0.00 | 0.00 | 0.00 | 64 | 1007.1 |
| 20260903221333 | 86 | 63 | 3.5 | 9.6 | 0.00 | 0.00 | 0.00 | 63 | 1007.2 |
| 20260903220834 | 86 | 164 | 3.5 | 9.6 | 0.00 | 0.00 | 0.00 | 63 | 1007.2 |
| 20260903220334 | 86 | 182 | 3.5 | 10.4 | 0.00 | 0.00 | 0.00 | 63 | 1007.3 |
| 20260903215836 | 86 | 154 | 5.2 | 10.4 | 0.00 | 0.00 | 0.00 | 62 | 1007.1 |
| 20260903215333 | 86 | 167 | 4.3 | 9.6 | 0.00 | 0.00 | 0.00 | 63 | 1007.1 |
| 20260903214833 | 86 | 141 | 3.5 | 8.7 | 0.00 | 0.00 | 0.00 | 64 | 1007.1 |
| 20260903214335 | 85 | 139 | 4.3 | 10.4 | 0.00 | 0.00 | 0.00 | 65 | 1007.2 |
| 20260903213834 | 85 | 134 | 4.3 | 10.4 | 0.00 | 0.00 | 0.00 | 65 | 1007.3 |
| 20260903213335 | 85 | 142 | 4.3 | 8.7 | 0.00 | 0.00 | 0.00 | 66 | 1007.4 |
| 20260903212833 | 85 | 169 | 2.6 | 8.7 | 0.00 | 0.00 | 0.00 | 67 | 1007.6 |
| 20260903212333 | 85 | 140 | 2.6 | 7.0 | 0.00 | 0.00 | 0.00 | 67 | 1007.6 |
| 20260903211831 | 85 | 139 | 2.6 | 7.0 | 0.00 | 0.00 | 0.00 | 70 | 1007.6 |
| 20260903211329 | 84 | 122 | 3.5 | 9.6 | 0.00 | 0.00 | 0.00 | 69 | 1007.5 |
| 20260903210828 | 85 | 128 | 4.3 | 12.2 | 0.00 | 0.00 | 0.00 | 64 | 1007.4 |
| 20260903210326 | 86 | 160 | 3.5 | 12.2 | 0.00 | 0.00 | 0.00 | 60 | 1007.2 |
| 20260903205827 | 86 | 130 | 2.6 | 9.6 | 0.00 | 0.00 | 0.00 | 58 | 1007.7 |
| 20260903205325 | 86 | 179 | 3.5 | 9.6 | 0.00 | 0.00 | 0.00 | 59 | 1008.0 |
| 20260903205049 | 86 | 139 | 4.3 | 10.4 | 0.00 | 0.00 | 0.00 | 59 | 1008.0 |
| 20260903204326 | 86 | 161 | 4.3 | 10.4 | 0.00 | 0.00 | 0.00 | 58 | 1007.9 |
| 20260903204039 | 87 | 131 | 2.6 | 9.6 | 0.00 | 0.00 | 0.00 | 58 | 1007.9 |
| 20260903203924 | 87 | 184 | 3.5 | 9.6 | 0.00 | 0.00 | 0.00 | 59 | 1007.9 |
| 20260903202825 | 87 | 141 | 2.6 | 7.8 | 0.00 | 0.00 | 0.00 | 60 | 1007.8 |
| 20260903202325 | 86 | 154 | 3.5 | 8.7 | 0.00 | 0.00 | 0.00 | 68 | 1007.8 |
| 20260903201825 | 86 | 78 | 4.3 | 8.7 | 0.00 | 0.00 | 0.00 | 68 | 1007.7 |
| 20260903201325 | 86 | 141 | 3.5 | 9.6 | 0.00 | 0.00 | 0.00 | 68 | 1007.7 |
| 20260903201044 | 86 | 188 | 2.6 | 9.6 | 0.00 | 0.00 | 0.00 | 69 | 1007.8 |
| 20260903200323 | 86 | 160 | 2.6 | 7.0 | 0.00 | 0.00 | 0.00 | 70 | 1007.8 |
| 20260903195824 | 85 | 173 | 2.6 | 7.8 | 0.00 | 0.00 | 0.00 | 70 | 1007.8 |
| 20260903195554 | 84 | 71 | 2.6 | 7.8 | 0.00 | 0.00 | 0.00 | 74 | 1007.9 |
| 20260903194823 | 83 | 119 | 1.7 | 6.1 | 0.00 | 0.00 | 0.00 | 74 | 1008.3 |
| 20260903194811 | 81 | 153 | 2.6 | 6.1 | 0.00 | 0.00 | 0.00 | 77 | 1008.5 |
| 20260903193823 | 80 | 187 | 3.5 | 7.0 | 0.00 | 0.00 | 0.00 | 79 | 1008.4 |
| 20260903193323 | 79 | 136 | 3.5 | 7.0 | 0.00 | 0.00 | 0.00 | 80 | 1008.3 |
| 20260903192824 | 79 | 140 | 3.5 | 7.8 | 0.00 | 0.00 | 0.00 | 80 | 1008.3 |
| 20260903192324 | 79 | 166 | 4.3 | 7.8 | 0.00 | 0.00 | 0.00 | 80 | 1008.2 |
| 20260903191823 | 79 | 148 | 4.3 | 8.7 | 0.00 | 0.00 | 0.00 | 79 | 1008.1 |
| 20260903191322 | 79 | 139 | 5.2 | 8.7 | 0.00 | 0.00 | 0.00 | 78 | 1007.8 |
| 20260903190821 | 80 | 146 | 4.3 | 8.7 | 0.00 | 0.00 | 0.00 | 77 | 1008.3 |
| 20260903190319 | 80 | 148 | 3.5 | 7.8 | 0.00 | 0.00 | 0.00 | 77 | 1008.5 |
| 20260903190042 | 80 | 152 | 2.6 | 6.1 | 0.00 | 0.00 | 0.00 | 75 | 1008.9 |
| 20260903185320 | 81 | 146 | 1.7 | 5.2 | 0.00 | 0.00 | 0.00 | 74 | 1009.2 |
| 20260903184813 | 81 | 147 | 1.7 | 4.3 | 0.00 | 0.00 | 0.00 | 73 | 1008.8 |
| 20260903184314 | 81 | 155 | 2.6 | 5.2 | 0.00 | 0.00 | 0.00 | 72 | 1009.0 |
| 20260903184038 | 81 | 174 | 2.6 | 6.1 | 0.00 | 0.00 | 0.00 | 71 | 1009.0 |
| 20260903183313 | 82 | 161 | 1.7 | 6.1 | 0.00 | 0.00 | 0.00 | 70 | 1009.0 |
| 20260903182819 | 82 | 83 | 1.7 | 8.7 | 0.00 | 0.00 | 0.00 | 70 | 1009.0 |
| 20260903182313 | 82 | 117 | 1.7 | 8.7 | 0.00 | 0.00 | 0.00 | 69 | 1009.0 |
| 20260903181813 | 82 | 122 | 1.7 | 3.5 | 0.00 | 0.00 | 0.00 | 69 | 1009.0 |
| 20260903181310 | 82 | 146 | 1.7 | 4.3 | 0.00 | 0.00 | 0.00 | 68 | 1009.2 |
| 20260903181031 | 82 | 146 | 1.7 | 6.1 | 0.00 | 0.00 | 0.00 | 68 | 1009.0 |
| 20260903180309 | 82 | 150 | 2.6 | 6.1 | 0.00 | 0.00 | 0.00 | 69 | 1009.2 |
| 20260903175807 | 82 | 127 | 1.7 | 5.2 | 0.00 | 0.00 | 0.00 | 69 | 1008.9 |
| 20260903175309 | 82 | 159 | 1.7 | 5.2 | 0.00 | 0.00 | 0.00 | 69 | 1008.9 |
| 20260903174808 | 82 | 138 | 1.7 | 5.2 | 0.00 | 0.00 | 0.00 | 68 | 1008.9 |
| 20260903174306 | 83 | 153 | 2.6 | 6.1 | 0.00 | 0.00 | 0.00 | 67 | 1008.9 |
| 20260903173808 | 83 | 153 | 2.6 | 7.0 | 0.00 | 0.00 | 0.00 | 67 | 1008.9 |
| 20260903173307 | 84 | 148 | 3.5 | 7.0 | 0.00 | 0.00 | 0.00 | 66 | 1009.0 |
| 20260903172807 | 84 | 197 | 3.5 | 7.8 | 0.00 | 0.00 | 0.00 | 65 | 1009.1 |
| 20260903172307 | 84 | 150 | 3.5 | 7.8 | 0.00 | 0.00 | 0.00 | 66 | 1009.2 |
| 20260903171808 | 84 | 178 | 3.5 | 6.1 | 0.00 | 0.00 | 0.00 | 67 | 1009.4 |
| 20260903171309 | 84 | 108 | 3.5 | 8.7 | 0.00 | 0.00 | 0.00 | 67 | 1009.6 |
| 20260903170803 | 84 | 133 | 2.6 | 8.7 | 0.00 | 0.00 | 0.00 | 67 | 1009.6 |
| 20260903170303 | 84 | 168 | 1.7 | 3.5 | 0.00 | 0.00 | 0.00 | 65 | 1009.7 |
| 20260903165803 | 84 | 147 | 1.7 | 7.8 | 0.00 | 0.00 | 0.00 | 65 | 1009.7 |
| 20260903165305 | 84 | 162 | 2.6 | 7.8 | 0.00 | 0.00 | 0.00 | 64 | 1009.5 |
| 20260903164805 | 83 | 121 | 2.6 | 7.8 | 0.00 | 0.00 | 0.00 | 66 | 1009.6 |
| 20260903164304 | 83 | 130 | 2.6 | 7.8 | 0.00 | 0.00 | 0.00 | 66 | 1009.6 |
| 20260903164024 | 83 | 157 | 2.6 | 7.0 | 0.00 | 0.00 | 0.00 | 67 | 1009.6 |
| 20260903163533 | 83 | 142 | 2.6 | 7.0 | 0.00 | 0.00 | 0.00 | 66 | 1009.6 |
| 20260903162802 | 83 | 167 | 2.6 | 6.1 | 0.00 | 0.00 | 0.00 | 68 | 1009.7 |
| 20260903162306 | 82 | 134 | 2.6 | 6.1 | 0.00 | 0.00 | 0.00 | 71 | 1009.6 |
| 20260903161804 | 81 | 147 | 1.7 | 6.1 | 0.00 | 0.00 | 0.00 | 71 | 1009.5 |
| 20260903161304 | 81 | 132 | 1.7 | 6.1 | 0.00 | 0.00 | 0.00 | 70 | 1009.5 |
| 20260903160805 | 81 | 76 | 1.7 | 6.1 | 0.00 | 0.00 | 0.00 | 69 | 1009.4 |
| 20260903160526 | 81 | 136 | 2.6 | 5.2 | 0.00 | 0.00 | 0.00 | 71 | 1009.5 |
| 20260903155803 | 81 | 98 | 3.5 | 7.8 | 0.00 | 0.00 | 0.00 | 70 | 1009.3 |
| 20260903155306 | 81 | 165 | 3.5 | 7.8 | 0.00 | 0.00 | 0.00 | 70 | 1009.5 |
| 20260903155030 | 81 | 131 | 2.6 | 7.8 | 0.00 | 0.00 | 0.00 | 71 | 1009.5 |
| 20260903154304 | 80 | 132 | 2.6 | 7.8 | 0.00 | 0.00 | 0.00 | 72 | 1009.6 |
| 20260903154029 | 80 | 140 | 2.6 | 7.0 | 0.00 | 0.00 | 0.00 | 72 | 1009.6 |
| 20260903153303 | 80 | 169 | 2.6 | 9.6 | 0.00 | 0.00 | 0.00 | 72 | 1009.7 |
| 20260903153025 | 80 | 139 | 3.5 | 9.6 | 0.00 | 0.00 | 0.00 | 71 | 1009.8 |
| 20260903152524 | 80 | 148 | 2.6 | 7.0 | 0.00 | 0.00 | 0.00 | 71 | 1009.6 |
| 20260903151804 | 80 | 142 | 1.7 | 7.0 | 0.00 | 0.00 | 0.00 | 70 | 1009.5 |
| 20260903151524 | 80 | 154 | 1.7 | 5.2 | 0.00 | 0.00 | 0.00 | 71 | 1009.4 |
| 20260903150804 | 81 | 120 | 1.7 | 5.2 | 0.00 | 0.00 | 0.00 | 69 | 1009.3 |
| 20260903150303 | 81 | 151 | 1.7 | 6.1 | 0.00 | 0.00 | 0.00 | 69 | 1009.4 |
| 20260903145801 | 81 | 175 | 1.7 | 6.1 | 0.00 | 0.00 | 0.00 | 69 | 1009.4 |
| 20260903145300 | 81 | 138 | 2.6 | 7.0 | 0.00 | 0.00 | 0.00 | 70 | 1009.5 |
| 20260903144801 | 81 | 128 | 2.6 | 7.0 | 0.00 | 0.00 | 0.00 | 71 | 1009.4 |
| 20260903144528 | 80 | 156 | 2.6 | 6.1 | 0.00 | 0.00 | 0.00 | 71 | 1009.4 |
| 20260903143800 | 80 | 141 | 2.6 | 6.1 | 0.00 | 0.00 | 0.00 | 73 | 1009.5 |
| 20260903143301 | 78 | 137 | 1.7 | 4.3 | 0.00 | 0.00 | 0.00 | 73 | 1009.6 |
| 20260903142801 | 78 | 88 | 1.7 | 4.3 | 0.00 | 0.00 | 0.00 | 75 | 1009.5 |
| 20260903142300 | 78 | 163 | 1.7 | 4.3 | 0.00 | 0.00 | 0.00 | 76 | 1009.4 |
| 20260903141801 | 77 | 149 | 1.7 | 4.3 | 0.00 | 0.00 | 0.00 | 76 | 1009.4 |
| 20260903141519 | 77 | 159 | 1.7 | 4.3 | 0.00 | 0.00 | 0.00 | 77 | 1009.4 |
| 20260903140759 | 76 | 143 | 1.7 | 4.3 | 0.00 | 0.00 | 0.00 | 79 | 1009.5 |
| 20260903140259 | 76 | 132 | 1.7 | 4.3 | 0.00 | 0.00 | 0.00 | 79 | 1009.6 |
| 20260903135800 | 75 | 145 | 2.6 | 5.2 | 0.00 | 0.00 | 0.00 | 80 | 1009.6 |
| 20260903135258 | 75 | 142 | 2.6 | 6.1 | 0.00 | 0.00 | 0.00 | 80 | 1009.8 |
| 20260903135015 | 75 | 148 | 1.7 | 6.1 | 0.00 | 0.00 | 0.00 | 82 | 1009.8 |
| 20260903134257 | 74 | 147 | 0.9 | 4.3 | 0.00 | 0.00 | 0.00 | 83 | 1009.7 |
| 20260903133756 | 74 | 268 | 1.7 | 5.2 | 0.00 | 0.00 | 0.00 | 84 | 1009.8 |
| 20260903133252 | 74 | 182 | 1.7 | 5.2 | 0.00 | 0.00 | 0.00 | 84 | 1009.9 |
| 20260903132753 | 74 | 184 | 0.9 | 4.3 | 0.00 | 0.00 | 0.00 | 84 | 1009.8 |
| 20260903132252 | 74 | 121 | 1.7 | 7.0 | 0.00 | 0.00 | 0.00 | 85 | 1009.8 |
| 20260903132016 | 73 | 151 | 2.6 | 7.0 | 0.00 | 0.00 | 0.00 | 86 | 1009.7 |
| 20260903131250 | 73 | 140 | 2.6 | 8.7 | 0.00 | 0.00 | 0.00 | 87 | 1009.6 |
| 20260903130749 | 73 | 132 | 2.6 | 8.7 | 0.00 | 0.00 | 0.00 | 87 | 1009.6 |
| 20260903130247 | 73 | 142 | 2.6 | 5.2 | 0.00 | 0.00 | 0.00 | 88 | 1009.7 |
| 20260903125744 | 73 | 163 | 2.6 | 5.2 | 0.00 | 0.00 | 0.00 | 89 | 1009.5 |
| 20260903125505 | 73 | 150 | 1.7 | 4.3 | 0.00 | 0.00 | 0.00 | 89 | 1009.4 |
| 20260903124743 | 73 | 140 | 1.7 | 4.3 | 0.00 | 0.00 | 0.00 | 89 | 1009.4 |
| 20260903124243 | 73 | 81 | 0.9 | 4.3 | 0.00 | 0.00 | 0.00 | 88 | 1009.4 |
| 20260903123743 | 73 | 118 | 0.9 | 2.6 | 0.00 | 0.00 | 0.00 | 88 | 1009.2 |
| 20260903123243 | 73 | 119 | 0.9 | 2.6 | 0.00 | 0.00 | 0.00 | 89 | 1009.2 |
| 20260903122743 | 73 | 123 | 0.9 | 3.5 | 0.00 | 0.00 | 0.00 | 89 | 1009.2 |
| 20260903122242 | 73 | 148 | 0.9 | 3.5 | 0.00 | 0.00 | 0.00 | 89 | 1009.2 |
| 20260903122013 | 74 | 144 | 1.7 | 4.3 | 0.00 | 0.00 | 0.00 | 89 | 1009.2 |
| 20260903121243 | 74 | 144 | 1.7 | 4.3 | 0.00 | 0.00 | 0.00 | 89 | 1009.2 |
| 20260903121004 | 74 | 152 | 0.9 | 2.6 | 0.00 | 0.00 | 0.00 | 89 | 1009.2 |
| 20260903120243 | 74 | 165 | 0.9 | 7.8 | 0.00 | 0.00 | 0.00 | 90 | 1009.3 |
| 20260903115744 | 74 | 196 | 1.7 | 7.8 | 0.00 | 0.00 | 0.00 | 90 | 1009.6 |
| 20260903115243 | 73 | 145 | 1.7 | 6.1 | 0.00 | 0.00 | 0.00 | 90 | 1009.4 |
| 20260903114747 | 73 | 170 | 1.7 | 4.3 | 0.00 | 0.00 | 0.00 | 90 | 1009.5 |
| 20260903114241 | 73 | 144 | 1.7 | 7.0 | 0.00 | 0.00 | 0.00 | 90 | 1009.5 |
| 20260903113734 | 73 | 153 | 1.7 | 7.0 | 0.00 | 0.00 | 0.00 | 90 | 1009.4 |
| 20260903113236 | 73 | 148 | 1.7 | 4.3 | 0.00 | 0.00 | 0.00 | 90 | 1009.3 |
| 20260903112733 | 73 | 161 | 1.7 | 4.3 | 0.00 | 0.00 | 0.00 | 90 | 1009.5 |
| 20260903112233 | 73 | 148 | 1.7 | 4.3 | 0.00 | 0.00 | 0.00 | 90 | 1009.3 |
| 20260903111730 | 73 | 115 | 1.7 | 3.5 | 0.00 | 0.00 | 0.00 | 90 | 1009.3 |
| 20260903111229 | 73 | 157 | 1.7 | 4.3 | 0.00 | 0.00 | 0.00 | 90 | 1009.4 |
| 20260903110727 | 73 | 156 | 1.7 | 4.3 | 0.00 | 0.00 | 0.00 | 90 | 1009.4 |
| 20260903110227 | 73 | 144 | 1.7 | 6.1 | 0.00 | 0.00 | 0.00 | 90 | 1009.4 |
| 20260903105728 | 73 | 144 | 1.7 | 7.8 | 0.00 | 0.00 | 0.00 | 90 | 1009.5 |
| 20260903105224 | 73 | 159 | 2.6 | 7.8 | 0.00 | 0.00 | 0.00 | 90 | 1009.7 |
| 20260903104726 | 73 | 161 | 2.6 | 6.1 | 0.00 | 0.00 | 0.00 | 90 | 1009.8 |
| 20260903104441 | 73 | 169 | 1.7 | 6.1 | 0.00 | 0.00 | 0.00 | 90 | 1009.6 |
| 20260903103721 | 73 | 171 | 1.7 | 5.2 | 0.00 | 0.00 | 0.00 | 90 | 1009.5 |
| 20260903103221 | 73 | 146 | 1.7 | 3.5 | 0.00 | 0.00 | 0.00 | 90 | 1009.6 |
| 20260903102722 | 73 | 69 | 1.7 | 3.5 | 0.00 | 0.00 | 0.00 | 89 | 1009.5 |
| 20260903102221 | 73 | 137 | 1.7 | 3.5 | 0.00 | 0.00 | 0.00 | 89 | 1009.4 |
| 20260903101751 | 73 | 155 | 1.7 | 4.3 | 0.00 | 0.00 | 0.00 | 89 | 1009.5 |
| 20260903101214 | 73 | 146 | 0.9 | 4.3 | 0.00 | 0.00 | 0.00 | 89 | 1009.5 |
| 20260903100715 | 73 | 158 | 0.9 | 3.5 | 0.00 | 0.00 | 0.00 | 89 | 1009.4 |
| 20260903100425 | 73 | 78 | 0.9 | 2.6 | 0.00 | 0.00 | 0.00 | 89 | 1009.3 |
| 20260903100316 | 73 | 146 | 0.9 | 2.6 | 0.00 | 0.00 | 0.00 | 89 | 1009.4 |
| 20260903095215 | 73 | 98 | 0.9 | 2.6 | 0.00 | 0.00 | 0.00 | 88 | 1009.3 |
| 20260903094716 | 73 | 100 | 0.0 | 2.6 | 0.00 | 0.00 | 0.00 | 88 | 1009.2 |
| 20260903094217 | 74 | 94 | 0.9 | 1.7 | 0.00 | 0.00 | 0.00 | 88 | 1009.2 |
| 20260903093713 | 74 | 88 | 0.9 | 1.7 | 0.00 | 0.00 | 0.00 | 88 | 1009.1 |
| 20260903093429 | 74 | 88 | 0.0 | 1.7 | 0.00 | 0.00 | 0.00 | 88 | 1009.3 |
| 20260903092709 | 74 | 90 | 0.0 | 2.6 | 0.00 | 0.00 | 0.00 | 88 | 1009.3 |
| 20260903092209 | 74 | 90 | 0.9 | 4.3 | 0.00 | 0.00 | 0.00 | 88 | 1009.3 |
| 20260903091930 | 74 | 73 | 1.7 | 5.2 | 0.00 | 0.00 | 0.00 | 87 | 1009.3 |
| 20260903091209 | 74 | 80 | 1.7 | 5.2 | 0.00 | 0.00 | 0.00 | 87 | 1009.2 |
| 20260903090933 | 74 | 87 | 1.7 | 4.3 | 0.00 | 0.00 | 0.00 | 87 | 1009.1 |
| 20260903090431 | 74 | 42 | 1.7 | 5.2 | 0.00 | 0.00 | 0.00 | 87 | 1009.0 |
| 20260903085722 | 74 | 70 | 2.6 | 6.1 | 0.00 | 0.00 | 0.00 | 87 | 1009.0 |
| 20260903085209 | 74 | 153 | 1.7 | 6.1 | 0.00 | 0.00 | 0.00 | 86 | 1009.1 |
| 20260903084710 | 74 | 81 | 1.7 | 4.3 | 0.00 | 0.00 | 0.00 | 86 | 1009.2 |
| 20260903084211 | 74 | 76 | 0.9 | 4.3 | 0.00 | 0.00 | 0.00 | 86 | 1009.2 |
| 20260903083710 | 74 | 80 | 0.9 | 3.5 | 0.00 | 0.00 | 0.00 | 86 | 1009.3 |
| 20260903083210 | 74 | 76 | 1.7 | 3.5 | 0.00 | 0.00 | 0.00 | 85 | 1009.2 |
| 20260903082709 | 74 | 77 | 1.7 | 3.5 | 0.00 | 0.00 | 0.00 | 85 | 1009.2 |
| 20260903082210 | 74 | 74 | 1.7 | 7.0 | 0.00 | 0.00 | 0.00 | 85 | 1009.4 |
| 20260903081707 | 74 | 79 | 2.6 | 7.0 | 0.00 | 0.00 | 0.00 | 85 | 1009.2 |
| 20260903081207 | 74 | 89 | 2.6 | 7.8 | 0.00 | 0.00 | 0.00 | 85 | 1009.2 |
| 20260903080710 | 74 | 80 | 2.6 | 7.8 | 0.00 | 0.00 | 0.00 | 85 | 1009.2 |
| 20260903080206 | 75 | 86 | 2.6 | 5.2 | 0.00 | 0.00 | 0.00 | 85 | 1009.3 |
| 20260903075703 | 75 | 87 | 1.7 | 5.2 | 0.00 | 0.00 | 0.00 | 85 | 1009.5 |
| 20260903075422 | 75 | 69 | 2.6 | 5.2 | 0.00 | 0.00 | 0.00 | 84 | 1009.5 |
| 20260903074658 | 75 | 87 | 2.6 | 5.2 | 0.00 | 0.00 | 0.00 | 84 | 1009.5 |
| 20260903074200 | 75 | 86 | 2.6 | 5.2 | 0.00 | 0.00 | 0.00 | 84 | 1009.5 |
| 20260903073653 | 75 | 69 | 2.6 | 5.2 | 0.00 | 0.00 | 0.00 | 84 | 1009.5 |
| 20260903073148 | 75 | 88 | 1.7 | 5.2 | 0.00 | 0.01 | 0.00 | 83 | 1009.5 |
| 20260903072649 | 75 | 76 | 2.6 | 5.2 | 0.00 | 0.01 | 0.00 | 83 | 1009.6 |
| 20260903072640 | 75 | 74 | 2.6 | 5.2 | 0.00 | 0.01 | 0.00 | 83 | 1009.5 |
| 20260903071646 | 75 | 65 | 2.6 | 6.1 | 0.00 | 0.02 | 0.00 | 83 | 1009.6 |
| 20260903071414 | 76 | 84 | 2.6 | 6.1 | 0.00 | 0.03 | 0.00 | 82 | 1009.7 |
| 20260903070647 | 76 | 71 | 2.6 | 5.2 | 0.00 | 0.03 | 0.00 | 82 | 1009.7 |
| 20260903070147 | 76 | 80 | 2.6 | 5.2 | 0.00 | 0.04 | 0.00 | 82 | 1009.8 |
| 20260903065648 | 76 | 90 | 2.6 | 5.2 | 0.00 | 0.04 | 0.00 | 82 | 1009.9 |
| 20260903065148 | 76 | 76 | 2.6 | 5.2 | 0.00 | 0.04 | 0.00 | 82 | 1009.8 |
| 20260903064647 | 76 | 78 | 2.6 | 5.2 | 0.00 | 0.04 | 0.00 | 81 | 1009.8 |
| 20260903064145 | 76 | 94 | 1.7 | 4.3 | 0.00 | 0.04 | 0.00 | 81 | 1009.7 |
| 20260903063646 | 76 | 85 | 0.9 | 5.2 | 0.00 | 0.04 | 0.00 | 81 | 1009.7 |
| 20260903063145 | 76 | 88 | 1.7 | 5.2 | 0.00 | 0.04 | 0.00 | 81 | 1009.8 |
| 20260903063130 | 76 | 90 | 2.6 | 5.2 | 0.00 | 0.04 | 0.00 | 80 | 1009.8 |
| 20260903062139 | 76 | 83 | 2.6 | 5.2 | 0.00 | 0.04 | 0.00 | 80 | 1009.9 |
| 20260903061641 | 77 | 79 | 2.6 | 5.2 | 0.00 | 0.04 | 0.00 | 80 | 1009.9 |
| 20260903061123 | 77 | 84 | 2.6 | 6.1 | 0.00 | 0.04 | 0.00 | 79 | 1009.9 |
| 20260903060623 | 77 | 65 | 2.6 | 7.0 | 0.00 | 0.04 | 0.00 | 79 | 1010.0 |
| 20260903060124 | 77 | 88 | 2.6 | 7.8 | 0.00 | 0.04 | 0.00 | 79 | 1009.9 |
| 20260903055624 | 77 | 79 | 2.6 | 7.8 | 0.00 | 0.04 | 0.00 | 79 | 1009.9 |
| 20260903055123 | 77 | 92 | 2.6 | 6.1 | 0.00 | 0.04 | 0.00 | 79 | 1009.9 |
| 20260903054622 | 77 | 72 | 2.6 | 6.1 | 0.00 | 0.04 | 0.00 | 78 | 1009.9 |
| 20260903054123 | 77 | 77 | 2.6 | 6.1 | 0.00 | 0.04 | 0.00 | 78 | 1009.9 |
| 20260903053623 | 77 | 92 | 3.5 | 7.0 | 0.00 | 0.04 | 0.00 | 78 | 1009.9 |
| 20260903053123 | 78 | 62 | 3.5 | 8.7 | 0.00 | 0.04 | 0.00 | 78 | 1009.8 |
| 20260903052624 | 78 | 97 | 3.5 | 8.7 | 0.00 | 0.04 | 0.00 | 78 | 1009.8 |
| 20260903052346 | 78 | 76 | 2.6 | 7.8 | 0.00 | 0.04 | 0.00 | 77 | 1009.8 |
| 20260903051847 | 78 | 86 | 2.6 | 7.0 | 0.00 | 0.04 | 0.00 | 77 | 1009.9 |
| 20260903051114 | 78 | 86 | 3.5 | 6.1 | 0.00 | 0.04 | 0.00 | 77 | 1009.9 |
| 20260903050613 | 78 | 79 | 3.5 | 7.0 | 0.00 | 0.04 | 0.00 | 77 | 1009.9 |
| 20260903050110 | 78 | 84 | 3.5 | 7.0 | 0.00 | 0.04 | 0.00 | 76 | 1009.9 |
| 20260903045611 | 78 | 73 | 3.5 | 6.1 | 0.00 | 0.04 | 0.04 | 76 | 1010.0 |
| 20260903045113 | 78 | 90 | 3.5 | 6.1 | 0.00 | 0.04 | 0.04 | 76 | 1010.2 |
| 20260903044612 | 78 | 80 | 3.5 | 7.0 | 0.00 | 0.04 | 0.04 | 76 | 1010.0 |
| 20260903044330 | 78 | 78 | 3.5 | 7.8 | 0.00 | 0.04 | 0.04 | 75 | 1010.0 |
| 20260903043611 | 78 | 95 | 3.5 | 7.8 | 0.00 | 0.04 | 0.04 | 75 | 1010.2 |
| 20260903043331 | 78 | 60 | 3.5 | 6.1 | 0.00 | 0.04 | 0.04 | 75 | 1010.3 |
| 20260903043055 | 78 | 86 | 2.6 | 6.1 | 0.00 | 0.04 | 0.04 | 75 | 1010.3 |
| 20260903042122 | 79 | 82 | 2.6 | 7.0 | 0.00 | 0.04 | 0.04 | 75 | 1010.3 |
| 20260903041829 | 79 | 87 | 3.5 | 7.0 | 0.00 | 0.04 | 0.04 | 75 | 1010.2 |
| 20260903041108 | 79 | 83 | 3.5 | 6.1 | 0.00 | 0.04 | 0.04 | 75 | 1010.2 |
| 20260903040608 | 79 | 87 | 3.5 | 7.8 | 0.00 | 0.04 | 0.04 | 75 | 1010.3 |
| 20260903040119 | 79 | 82 | 4.3 | 8.7 | 0.00 | 0.04 | 0.04 | 75 | 1010.3 |
| 20260903035601 | 79 | 88 | 4.3 | 9.6 | 0.00 | 0.04 | 0.04 | 75 | 1010.3 |
| 20260903035054 | 79 | 100 | 4.3 | 9.6 | 0.00 | 0.04 | 0.04 | 75 | 1010.4 |
| 20260903034552 | 79 | 77 | 3.5 | 8.7 | 0.00 | 0.04 | 0.04 | 75 | 1010.4 |
| 20260903034049 | 79 | 90 | 3.5 | 8.7 | 0.00 | 0.04 | 0.04 | 75 | 1010.4 |
| 20260903033547 | 79 | 150 | 2.6 | 8.7 | 0.00 | 0.04 | 0.04 | 74 | 1010.4 |
| 20260903033048 | 79 | 64 | 2.6 | 7.8 | 0.00 | 0.04 | 0.04 | 74 | 1010.4 |